Voltar ao catálogo

STARLINK-34972

AtivoComunicaçõesSSO
NORAD 65188·PAYLOAD·🇺🇸 United States

Lançado Aug 14, 2025 de Vandenberg Space Force Base

Loading…

Próximas Passagens (próximas 24 horas)

TLE

AtualizadoSource: CelesTrak SupGP

Época: Sep 15, 2026, 03:11 UTC

1 65188C 25175Q   26258.13312500  .00026793  00000+0  83145-3 0  2584
2 65188  97.2843 127.2213 0001684  93.4171 220.6714 15.33435343    12

Acompanhe STARLINK-34972 em tempo real com AllMySat

Download on the App Store